Terminal Aerodrome Forecast
Issued by NWS Anchorage, AK

Home | Current Version | Previous Version | Text Only | Print | Product List | Glossary On
Versions: 1 2 3 4 5 6 7 8 9 10 11 12 13 14 15 16 17 18 19 20 21 22 23 24 25 26 27 28 29 30 31 32 33 34 35 36 37 38 39 40 41 42 43 44 45 46 47 48 49 50
000
FTAK31 PANC 262117 AAB
TAFANC
TAF AMD
PANC 262117Z 2621/2724 17007KT P6SM VCSH SCT035 BKN060
      TEMPO 2621/2624 14010G18KT BKN035
     FM270000 18005KT 6SM -SHSN BKN035
     FM270600 19004KT P6SM SCT035 BKN080=

USA.gov is the U.S. government's official web portal to all federal, state and local government web resources and services.